Flag for Germany Weather past 2 weeks in Cottbus, Brandenburg, Germany

Now
65 °F

Passing clouds.


Feels Like: 65 °F
Forecast: 57 / 72 °F
Wind: 2 mph from Southeast

Location: Cottbus

Current Time: Sep 18, 2014 at 8:53:04 PM

Latest Report: Sep 18, 2014 at 8:00 PM


Visibility: 16 mi

Pressure: 29.97 "Hg

Humidity: 62%

Dew point: 51 °F

Location of CottbusLocation

Historic Weather in Cottbus — Graph

°F

Cottbus temperature yesterday

Maximum temperature yesterday: 77 °F (at 4:00 PM)
Minimum temperature yesterday: 53 °F (at 7:00 AM)
Average temperature yesterday: 64 °F

Past Weeks' High & Low Weather Summary

 TemperatureHumidityPressure
High80 °F (Sep 6, 4:00 PM)100% (Sep 15, 3:00 AM)30.24 "Hg (Sep 15, 3:00 AM)
Low53 °F (Sep 11, 5:00 AM)42% (Sep 18, 2:00 PM)29.87 "Hg (Sep 6, 5:00 PM)
Average64 °F80%30.03 "Hg
* Reported Sep 3 7:00 PM — Sep 18 7:00 PM, Cottbus, Weather by CustomWeather, © 2014

Note: Actual official high and low records may vary slightly from our data, if they occured in-between our weather recording intervals... More about our weather records

Advertising

Cottbus weather history for previous 24 hours

 ConditionsComfort  
Time TempWeatherWind HumidityBarometerVisibility
7:00 PM
Sep 18
70 °FPartly sunny.2 mph52%29.96 "Hg18 mi
6:00 PM72 °FOvercast.3 mph46%29.96 "Hg17 mi
5:00 PM73 °FOvercast.5 mph45%29.96 "Hg17 mi
4:00 PM73 °FPartly sunny.6 mph44%29.96 "Hg19 mi
3:00 PM74 °FPartly sunny.6 mph44%29.96 "Hg19 mi
2:00 PM74 °FPassing clouds.7 mph42%29.96 "Hg19 mi
1:00 PM73 °FPassing clouds.7 mph45%29.97 "Hg19 mi
12:00 PM71 °FPassing clouds.6 mph51%29.98 "Hg19 mi
11:00 AM69 °FPassing clouds.5 mph55%29.99 "Hg17 mi
10:00 AM64 °FSunny.3 mph70%30.00 "Hg11 mi
9:00 AM59 °FSunny.3 mph82%30.00 "Hg6 mi
8:00 AM55 °FFog.2 mph90%30.00 "Hg4 mi
7:00 AM54 °FFog.3 mph94%30.00 "Hg4 mi
6:00 AM54 °FFog.2 mph93%30.00 "Hg4 mi
5:00 AM55 °FClear.3 mph91%30.00 "Hg5 mi
4:00 AM56 °FClear.3 mph91%30.01 "Hg5 mi
3:00 AM57 °FClear.2 mph88%30.01 "Hg6 mi
2:00 AM58 °FClear.2 mph87%30.02 "Hg7 mi
1:00 AM59 °FClear.2 mph87%30.01 "Hg7 mi
12:00 AM60 °FClear.2 mph85%30.02 "Hg7 mi
11:00 PM
Sep 17
62 °FClear.2 mph82%30.01 "Hg7 mi
10:00 PM64 °FClear.2 mph79%30.02 "Hg7 mi
9:00 PM66 °FClear.3 mph73%30.01 "Hg8 mi
8:00 PM69 °FClear.3 mph66%30.00 "Hg9 mi
Weather by CustomWeather, © 2014

See weather overviewHow to use our weather pages